This demonstration page uses our WeatherBlox Daily Observations layout. Learn more.

38.89511, -77.03637

Hourly Observations for July 25, 2019

Temp ( °F °C ) Dew Point ( °F °C ) Humidity (%) Winds ( mph kmh ) Pressure ( in mb ) Visibility ( mi km ) Precip ( " mm )
12:52 am 00:52 Partly Cloudy 71 21.7 64 17.8 79 79 W 10 17 30.03 1017 10 16.09344 0 0
1:52 am 01:52 Mostly Clear 69 20.6 63 17.2 81 81 NNW 8 13 30.03 1017 10 16.09344 0 0
2:52 am 02:52 Partly Cloudy 68 20 61 16.1 78 78 N 7 11 30.03 1017 10 16.09344 0 0
3:52 am 03:52 Mostly Clear 67 19.4 58 14.4 73 73 N 6 9 30.03 1017 10 16.09344 0 0
4:52 am 04:52 Mostly Clear 66 18.9 58 14.4 75 75 N 8 13 30.06 1018 10 16.09344 0 0
5:52 am 05:52 Mostly Clear 65 18.3 58 14.4 78 78 N 7 11 30.06 1018 10 16.09344 0 0
6:52 am 06:52 Mostly Sunny 66 18.9 58 14.4 75 75 N 8 13 30.09 1019 10 16.09344 0 0
7:52 am 07:52 Mostly Sunny 70 21.1 58 14.4 66 66 N 7 11 30.09 1019 10 16.09344 0 0
8:52 am 08:52 Mostly Sunny 74 23.3 61 16.1 64 64 NNW 6 9 30.12 1020 10 16.09344 0 0
9:52 am 09:52 Sunny 78 25.6 61 16.1 56 56 N 5 7 30.12 1020 10 16.09344 0 0
10:52 am 10:52 Sunny 81 27.2 61 16.1 51 51 VRB 3 6 30.12 1020 10 16.09344 0 0
11:52 am 11:52 Mostly Sunny 83 28.3 61 16.1 48 48 NNW 3 6 30.12 1020 10 16.09344 0 0
12:52 pm 12:52 Partly Cloudy 85 29.4 59 15 42 42 VRB 3 6 30.12 1020 10 16.09344 0 0
1:52 pm 13:52 Partly Cloudy 85 29.4 56 13.3 37 37 ESE 3 6 30.12 1020 10 16.09344 0 0
2:52 pm 14:52 Partly Cloudy 88 31.1 57 13.9 35 35 NNE 6 9 30.12 1020 10 16.09344 0 0
3:52 pm 15:52 Partly Cloudy 87 30.6 58 14.4 37 37 NE 7 11 30.12 1020 10 16.09344 0 0
4:52 pm 16:52 Mostly Cloudy 84 28.9 59 15 43 43 E 6 9 30.12 1020 10 16.09344 0 0
5:52 pm 17:52 Partly Cloudy 83 28.3 59 15 44 44 NE 7 11 30.09 1019 10 16.09344 0 0
6:52 pm 18:52 Partly Cloudy 83 28.3 60 15.6 46 46 ESE 5 7 30.12 1020 10 16.09344 0 0
7:52 pm 19:52 Partly Cloudy 81 27.2 61 16.1 51 51 SSE 6 9 30.15 1021 10 16.09344 0 0
8:52 pm 20:52 Mostly Cloudy with Light Rain 79 26.1 63 17.2 58 58 N 7 11 30.15 1021 10 16.09344 0.01 0.254
9:52 pm 21:52 Partly Cloudy 79 26.1 65 18.3 62 62 Calm 30.18 1022 10 16.09344 0.001 0.001
10:52 pm 22:52 Mostly Clear 78 25.6 66 18.9 67 67 Calm 30.18 1022 10 16.09344 0 0

Powered by AerisWeather